Location: Mentone
(34.5413°N, 85.5351°W)
Time: 05:00:15
(UTC-05:00)

UOSAT-12 - Visible Passes

Search period start: 29 August 2014 00:00
Search period end: 08 September 2014 00:00
Orbit: 595 x 664 km, 64.6° (Epoch: 25 August)

Date Brightness Start Highest point End Pass type
(mag) Time Alt. Az. Time Alt. Az. Time Alt. Az.
29 Aug 10.1 04:28:23 10° ESE 04:29:34 11° ESE 04:30:44 10° E visible
30 Aug 9.1 04:45:54 10° SSE 04:49:44 27° ESE 04:53:39 10° NE visible
31 Aug 7.5 05:05:34 10° SSW 05:10:06 67° ESE 05:14:45 10° NE visible
01 Sep 9.7 03:49:02 11° SE 03:51:00 14° ESE 03:53:25 10° ENE visible
01 Sep 7.4 05:26:26 11° SW 05:30:39 51° WNW 05:35:13 10° NNE visible
02 Sep 8.5 04:09:48 28° SSE 04:11:13 34° ESE 04:15:26 10° NE visible
02 Sep 8.5 05:47:42 10° WSW 05:51:24 23° NW 05:55:10 10° N visible
03 Sep 7.1 04:30:28 51° SSW 04:31:37 85° ESE 04:36:19 10° NNE visible
04 Sep 9.7 03:13:40 16° E 03:13:40 16° E 03:15:34 10° ENE visible
04 Sep 7.7 04:51:02 34° W 04:52:13 41° NW 04:56:40 10° NNE visible
05 Sep 8.7 03:34:09 33° ENE 03:34:09 33° ENE 03:37:08 10° NE visible
05 Sep 8.7 05:11:31 17° WNW 05:13:02 19° NW 05:16:26 10° N visible
06 Sep 8.1 03:54:34 44° NNE 03:54:34 44° NNE 03:57:51 10° NNE visible
07 Sep 8.5 04:14:55 29° NNW 04:14:55 29° NNW 04:18:04 10° N visible
